[[{"header":{"parameterUnit":"m.s-1","parameterCategory":2,"la1":30.2992,"la2":30.254,"lo1":-89.0895,"lo2":-89.0443,"dy":0.0025,"dx":0.0025,"nx":19,"ny":19,"refTime":"2026-05-06T21:00:00:Z","depth":"0","parameterNumber":2,"parameterNumberName":"U-component_of_CURRENTS"},"data":[0,0,0,0.1834,0.1836,0.19,0.19,0.1939,0.1939,0,0,0,0,0,0,0,0,0,0,0,0.1806,0.1806,0.1834,0.1836,0.19,0.19,0.1938,0.1939,0,0,0,0,0,0,0,0,0,0,0,0.1805,0.1806,0.1806,0.1836,0.19,0.19,0.1938,0.19,0,0,0,0,0,0,0,0,0,0,0.1843,0.1819,0.1806,0.1806,0.1837,0.19,0.19,0.1898,0.1902,0.1898,0,0.191,0,0.193,0.1941,0.1941,0,0,0,0.1831,0.1816,0.184,0.1807,0.1837,0.19,0.187,0.1901,0.1905,0.1903,0.191,0.1912,0.193,0.1941,0.1941,0.2034,0.2035,0,0,0.1828,0.181,0.1837,0.1843,0.1855,0.1868,0.1872,0.1904,0.1903,0.1911,0.1914,0.1931,0.1941,0.1941,0.2033,0.2034,0,0,0,0.1821,0.1807,0.1832,0.1841,0.1859,0.187,0.1874,0.1902,0.1912,0.1914,0.1931,0.1941,0.1942,0.2032,0.2034,0.2097,0,0,0,0.1818,0.1804,0.183,0.1819,0.1858,0.1886,0.1871,0.191,0.1914,0.1931,0.1941,0.1942,0.2032,0.2033,0.2094,0.2125,0,0,0,0.1803,0.1802,0.1812,0.1818,0.185,0.1887,0.1898,0.1911,0.1925,0.1941,0.1942,0.2031,0.2033,0.209,0.2119,0.22,0,0,0,0.1779,0.1793,0.1811,0.1838,0.1849,0.1899,0.1899,0.1923,0.1936,0.1942,0.2032,0.2034,0.2089,0.2116,0.2196,0.2122,0.2135,0,0,0.1784,0.1793,0.1813,0.1831,0.1874,0.1889,0.1957,0.1966,0.1969,0.2015,0.2017,0.2095,0.2119,0.2199,0.2232,0.2241,0,0,0,0.1807,0.1817,0.1834,0.1867,0.1904,0.1966,0.1981,0.2019,0.208,0.1989,0.2116,0.2129,0.2178,0.2125,0.2134,0.2189,0.2042,0.2042,0.2042,0.1781,0.1818,0.1849,0.1901,0.1943,0.2016,0.2083,0.2143,0.2119,0.2173,0.2196,0.2321,0.2266,0.2271,0.2331,0.2212,0.2212,0.2213,0.2213,0.1799,0.1825,0.1874,0.1916,0.1989,0.2055,0.2194,0.2223,0.2347,0.2297,0.2341,0.2213,0.2284,0.2344,0.2217,0.2216,0.2216,0.2215,0.2215,0.1789,0.1806,0.1833,0.1897,0.1984,0.2085,0.2216,0.2327,0.2405,0.2461,0.2409,0.2406,0.2447,0.2482,0.2483,0.2483,0.2484,0.2484,0.2484,0.1769,0.1798,0.1806,0.1876,0.1915,0.2033,0.2235,0.234,0.2464,0.2485,0.2485,0.2499,0.2404,0.2379,0.2492,0.2491,0.249,0.2489,0.2489,0.1774,0.1752,0.1761,0.1776,0.1865,0.1906,0.2126,0.2309,0.2444,0.2488,0.2583,0.2506,0.2484,0.2475,0.2453,0.2579,0.2579,0.2579,0.2579,0.1747,0.1747,0.171,0.171,0.1763,0.1848,0.1919,0.214,0.2437,0.2573,0.2657,0.2576,0.2569,0.2549,0.2538,0.2516,0.2656,0.2656,0.2656,0.174,0.1714,0.1666,0.1646,0.1695,0.1741,0.1766,0.1952,0.2416,0.267,0.2764,0.276,0.265,0.2635,0.2601,0.2582,0.2542,0,0]},{"header":{"parameterUnit":"m.s-1","parameterCategory":2,"la1":30.2992,"la2":30.254,"lo1":-89.0895,"lo2":-89.0443,"dy":0.0025,"dx":0.0025,"nx":19,"ny":19,"refTime":"2026-05-06T21:00:00:Z","depth":"0","parameterNumber":3,"parameterNumberName":"V-component_of_CURRENTS"},"data":[0,0,0,0.0236,0.0235,0.0177,0.0177,0.0095,0.0094,0,0,0,0,0,0,0,0,0,0,0,0.0256,0.0256,0.0236,0.0235,0.0177,0.0177,0.0095,0.0094,0,0,0,0,0,0,0,0,0,0,0,0.0256,0.0256,0.0256,0.0235,0.0177,0.0177,0.0095,0.0137,0,0,0,0,0,0,0,0,0,0,0.0193,0.0219,0.0256,0.0256,0.0235,0.0177,0.0177,0.0139,0.0135,0.0123,0,0.0124,0,0.0113,0.009,0.009,0,0,0,0.0221,0.0223,0.0209,0.0256,0.0235,0.0177,0.0199,0.0137,0.0132,0.0117,0.0122,0.0119,0.0112,0.0089,0.0089,0.013,0.013,0,0,0.0224,0.024,0.0213,0.0206,0.0231,0.0201,0.0198,0.0134,0.0132,0.0122,0.0117,0.011,0.0089,0.0088,0.0129,0.013,0,0,0,0.0243,0.0243,0.023,0.021,0.0203,0.02,0.0196,0.0135,0.0131,0.0117,0.0109,0.0089,0.0088,0.0128,0.0129,0.0269,0,0,0,0.0244,0.0255,0.0232,0.024,0.0205,0.017,0.0199,0.0136,0.0128,0.011,0.0089,0.0087,0.0127,0.0128,0.0263,0.033,0,0,0,0.0257,0.0256,0.0253,0.0241,0.0222,0.0171,0.0163,0.0134,0.0124,0.009,0.0087,0.0126,0.0128,0.0257,0.0321,0.0399,0,0,0,0.0268,0.0309,0.0254,0.029,0.0223,0.0236,0.0163,0.0148,0.0125,0.0088,0.0127,0.0129,0.0256,0.0315,0.0393,0.0476,0.051,0,0,0.0337,0.0317,0.034,0.029,0.0317,0.0242,0.0293,0.0218,0.0158,0.0142,0.0143,0.0265,0.032,0.0398,0.0603,0.0634,0,0,0,0.0372,0.04,0.0394,0.0391,0.0361,0.0369,0.03,0.0289,0.0277,0.0157,0.0271,0.0301,0.0346,0.0383,0.0408,0.0288,0.0139,0.0139,0.0139,0.0503,0.0476,0.0516,0.0494,0.0498,0.0457,0.0473,0.0449,0.0366,0.0394,0.042,0.0581,0.0623,0.0643,0.0519,0.042,0.0421,0.0421,0.0421,0.0627,0.0648,0.062,0.0653,0.0626,0.0663,0.0661,0.0623,0.066,0.0564,0.06,0.0534,0.0678,0.0536,0.043,0.0429,0.0428,0.0427,0.0426,0.0702,0.071,0.0721,0.0759,0.0808,0.0798,0.0903,0.0869,0.0802,0.0838,0.0845,0.0843,0.0712,0.0848,0.0849,0.0849,0.085,0.085,0.0851,0.0764,0.0779,0.0831,0.0873,0.0924,0.0998,0.1049,0.1091,0.1089,0.1015,0.1015,0.0768,0.071,0.0687,0.0861,0.0859,0.0858,0.0857,0.0856,0.0881,0.0849,0.0972,0.1024,0.1128,0.1276,0.129,0.1381,0.1371,0.1384,0.107,0.1101,0.1062,0.1041,0.1025,0.1276,0.1276,0.1276,0.1276,0.0936,0.0931,0.1092,0.1217,0.1313,0.1422,0.1635,0.1655,0.1447,0.1293,0.1173,0.1075,0.1063,0.1014,0.0994,0.0972,0.1204,0.1204,0.1203,0.1021,0.1082,0.1208,0.1305,0.1414,0.1594,0.1836,0.191,0.1481,0.1181,0.0995,0.0998,0.0825,0.0816,0.0708,0.0689,0.0641,0,0]}],[{"header":{"parameterUnit":"m.s-1","parameterCategory":2,"la1":30.2992,"la2":30.254,"lo1":-89.0895,"lo2":-89.0443,"dy":0.0025,"dx":0.0025,"nx":19,"ny":19,"refTime":"2026-05-06T21:00:00:Z","depth":"2","parameterNumber":2,"parameterNumberName":"U-component_of_CURRENTS"},"data":[0,0,0,0.183,0.1832,0.1895,0.1895,0.1933,0.1934,0,0,0,0,0,0,0,0,0,0,0,0.1802,0.1802,0.183,0.1832,0.1895,0.1895,0.1933,0.1934,0,0,0,0,0,0,0,0,0,0,0,0.1802,0.1802,0.1803,0.1832,0.1895,0.1895,0.1933,0.1895,0,0,0,0,0,0,0,0,0,0,0.1839,0.1816,0.1802,0.1803,0.1833,0.1895,0.1895,0.1894,0.1897,0.1894,0,0.1905,0,0.1925,0.1936,0.1936,0,0,0,0.1827,0.1812,0.1836,0.1803,0.1833,0.1895,0.1865,0.1896,0.19,0.1899,0.1906,0.1908,0.1925,0.1936,0.1936,0.2027,0.2028,0,0,0.1824,0.1806,0.1834,0.1839,0.185,0.1863,0.1867,0.1899,0.1898,0.1906,0.1909,0.1926,0.1936,0.1936,0.2027,0.2028,0,0,0,0.1817,0.1804,0.1828,0.1837,0.1854,0.1865,0.187,0.1897,0.1907,0.191,0.1926,0.1936,0.1937,0.2026,0.2027,0.2091,0,0,0,0.1815,0.18,0.1826,0.1815,0.1854,0.1882,0.1866,0.1905,0.1909,0.1926,0.1936,0.1937,0.2025,0.2027,0.2088,0.2117,0,0,0,0.1799,0.1799,0.1808,0.1814,0.1845,0.1882,0.1894,0.1906,0.1919,0.1936,0.1937,0.2024,0.2026,0.2085,0.2111,0.2186,0,0,0,0.1776,0.1789,0.1807,0.1834,0.1845,0.1893,0.1894,0.1918,0.1931,0.1936,0.2025,0.2027,0.2084,0.2108,0.2182,0.2071,0.208,0,0,0.178,0.1789,0.1808,0.1827,0.1869,0.1884,0.1951,0.1961,0.1963,0.2008,0.2011,0.2089,0.2111,0.2186,0.2177,0.2183,0,0,0,0.1803,0.1812,0.1829,0.1861,0.1899,0.196,0.1975,0.2012,0.2073,0.1983,0.2109,0.2121,0.2166,0.2091,0.2096,0.2036,0.2036,0.2035,0.2035,0.1775,0.1812,0.1843,0.1895,0.1936,0.201,0.2075,0.2134,0.2111,0.2164,0.2188,0.2308,0.2228,0.2231,0.2204,0.2204,0.2204,0.2205,0.2205,0.1792,0.1816,0.1868,0.1909,0.1983,0.2049,0.2184,0.2214,0.2333,0.2286,0.2327,0.2179,0.224,0.221,0.2209,0.2208,0.2208,0.2207,0.2207,0.178,0.1795,0.1826,0.1891,0.1977,0.2077,0.2205,0.2314,0.239,0.2444,0.2364,0.236,0.2347,0.2463,0.2464,0.2464,0.2465,0.2465,0.2466,0.1754,0.1787,0.1797,0.1868,0.1907,0.2024,0.2222,0.2313,0.2413,0.2435,0.2433,0.2395,0.2387,0.2363,0.2473,0.2472,0.2471,0.247,0.2469,0.1757,0.1734,0.1739,0.1757,0.1851,0.1891,0.2093,0.223,0.2362,0.2378,0.2437,0.2435,0.2407,0.24,0.2377,0.2485,0.2485,0.2485,0.2485,0.1723,0.1725,0.1682,0.1685,0.1748,0.1825,0.1846,0.1963,0.2158,0.2235,0.2246,0.2134,0.2139,0.209,0.209,0.2057,0.2082,0.2081,0.2081,0.1718,0.1675,0.1633,0.1611,0.1679,0.171,0.1666,0.1668,0.1854,0.2062,0.2151,0.2462,0.2321,0.232,0.226,0.2255,0.2208,0,0]},{"header":{"parameterUnit":"m.s-1","parameterCategory":2,"la1":30.2992,"la2":30.254,"lo1":-89.0895,"lo2":-89.0443,"dy":0.0025,"dx":0.0025,"nx":19,"ny":19,"refTime":"2026-05-06T21:00:00:Z","depth":"2","parameterNumber":3,"parameterNumberName":"V-component_of_CURRENTS"},"data":[0,0,0,0.0184,0.0183,0.0125,0.0125,0.004,0.004,0,0,0,0,0,0,0,0,0,0,0,0.0204,0.0204,0.0184,0.0183,0.0125,0.0125,0.004,0.004,0,0,0,0,0,0,0,0,0,0,0,0.0204,0.0204,0.0204,0.0183,0.0125,0.0125,0.004,0.0083,0,0,0,0,0,0,0,0,0,0,0.0139,0.0166,0.0204,0.0204,0.0183,0.0125,0.0125,0.0085,0.0081,0.0068,0,0.0069,0,0.0058,0.0035,0.0035,0,0,0,0.0169,0.017,0.0156,0.0204,0.0182,0.0126,0.0147,0.0083,0.0077,0.0062,0.0067,0.0064,0.0057,0.0034,0.0034,0.0063,0.0064,0,0,0.0172,0.0188,0.016,0.0153,0.018,0.0149,0.0146,0.0079,0.0078,0.0067,0.0062,0.0055,0.0034,0.0033,0.0062,0.0063,0,0,0,0.0191,0.0191,0.0178,0.0157,0.015,0.0148,0.0144,0.0081,0.0078,0.0061,0.0054,0.0034,0.0033,0.0061,0.0063,0.0196,0,0,0,0.0192,0.0202,0.018,0.0188,0.0152,0.0117,0.0147,0.0082,0.0074,0.0055,0.0034,0.0032,0.0061,0.0062,0.019,0.0257,0,0,0,0.0205,0.0203,0.0201,0.0189,0.017,0.0118,0.011,0.008,0.007,0.0035,0.0032,0.006,0.0062,0.0185,0.0248,0.0306,0,0,0,0.0216,0.0255,0.0202,0.0236,0.0171,0.018,0.011,0.0094,0.007,0.0033,0.0061,0.0063,0.0183,0.0242,0.0301,0.0186,0.0202,0,0,0.0282,0.0263,0.0284,0.0236,0.0259,0.0186,0.0231,0.0158,0.0098,0.0076,0.0077,0.0192,0.0247,0.0305,0.0301,0.0313,0,0,0,0.0316,0.034,0.0334,0.0329,0.0299,0.0304,0.0235,0.0221,0.0204,0.0095,0.0195,0.0226,0.0258,0.0177,0.0188,0.0072,0.0072,0.0072,0.0071,0.0438,0.0411,0.0447,0.0423,0.0426,0.0384,0.0394,0.0365,0.0287,0.031,0.0336,0.0476,0.0392,0.0398,0.0332,0.0333,0.0333,0.0334,0.0334,0.0554,0.0565,0.0543,0.0574,0.0546,0.0579,0.0567,0.0529,0.0552,0.0468,0.0492,0.0324,0.0417,0.0345,0.0343,0.0341,0.034,0.0339,0.0339,0.062,0.0619,0.0641,0.0678,0.072,0.0708,0.0798,0.0762,0.0686,0.0715,0.0587,0.0582,0.0551,0.0719,0.072,0.072,0.0721,0.0721,0.0722,0.0661,0.0683,0.0741,0.0784,0.083,0.0899,0.0936,0.0933,0.0831,0.073,0.0728,0.0605,0.0592,0.0572,0.0731,0.0729,0.0728,0.0727,0.0727,0.0743,0.0727,0.0789,0.0847,0.0997,0.1049,0.1098,0.1,0.097,0.0867,0.0718,0.0715,0.0657,0.0644,0.0624,0.0787,0.0787,0.0787,0.0787,0.0765,0.0775,0.0846,0.0969,0.1146,0.1129,0.1118,0.0972,0.0788,0.068,0.0685,0.0569,0.0567,0.0497,0.0487,0.0461,0.0582,0.0582,0.0582,0.0815,0.0753,0.0854,0.096,0.1214,0.117,0.1076,0.0905,0.0647,0.0578,0.0687,0.0766,0.06,0.0597,0.0485,0.0472,0.0427,0,0]}],[{"header":{"parameterUnit":"m.s-1","parameterCategory":2,"la1":30.2992,"la2":30.254,"lo1":-89.0895,"lo2":-89.0443,"dy":0.0025,"dx":0.0025,"nx":19,"ny":19,"refTime":"2026-05-06T21:00:00:Z","depth":"4","parameterNumber":2,"parameterNumberName":"U-component_of_CURRENTS"},"data":[0,0,0,0.1003,0.1007,0.1221,0.1222,0.1367,0.1367,0,0,0,0,0,0,0,0,0,0,0,0.0957,0.0959,0.1003,0.1008,0.1221,0.1222,0.1367,0.1367,0,0,0,0,0,0,0,0,0,0,0,0.0956,0.0958,0.096,0.1008,0.1221,0.1223,0.1367,0.1243,0,0,0,0,0,0,0,0,0,0,0.1054,0.1025,0.0958,0.096,0.1009,0.1221,0.1223,0.1239,0.1251,0.1225,0,0.1273,0,0.1298,0.1372,0.1372,0,0,0,0.1032,0.1015,0.106,0.0961,0.1011,0.122,0.1132,0.1247,0.126,0.124,0.1275,0.1281,0.13,0.1372,0.1373,0.1462,0.1462,0,0,0.102,0.1004,0.1051,0.1068,0.1082,0.1125,0.1138,0.1256,0.128,0.1276,0.1285,0.1303,0.1373,0.1373,0.1461,0.1462,0,0,0,0.097,0.0995,0.1041,0.1062,0.1098,0.113,0.1146,0.1277,0.1289,0.1286,0.1304,0.1373,0.1374,0.1461,0.1461,0.1512,0,0,0,0.0964,0.0964,0.1036,0.1029,0.1096,0.1206,0.1163,0.1283,0.1296,0.1304,0.1373,0.1375,0.146,0.1461,0.1509,0.1556,0,0,0,0.0944,0.0961,0.0989,0.1028,0.1105,0.1205,0.1228,0.1288,0.1304,0.1372,0.1375,0.146,0.1461,0.1507,0.1552,0.1514,0,0,0,0.0915,0.0953,0.099,0.1048,0.1103,0.1187,0.1228,0.1309,0.1368,0.1373,0.146,0.1461,0.1506,0.1549,0.1513,0.1309,0,0,0,0.0932,0.0956,0.0988,0.1023,0.1093,0.1158,0.1254,0.1352,0.1374,0.1415,0.1419,0.151,0.1551,0.1514,0.1378,0,0,0,0,0.0971,0.0999,0.1027,0.109,0.1149,0.1247,0.1327,0.1373,0.1473,0.1411,0.1519,0.1544,0.1518,0.1395,0.1467,0.1467,0.1467,0.1466,0.1466,0.0966,0.1008,0.106,0.113,0.1194,0.131,0.1396,0.1474,0.1482,0.1541,0.159,0.1611,0.1486,0.1583,0.1583,0.1583,0.1584,0.1584,0.1584,0.0965,0.0984,0.1078,0.1154,0.1261,0.1356,0.1477,0.1531,0.1638,0.1651,0.162,0.1467,0.1589,0.1588,0.1587,0.1587,0.1586,0.1586,0.1586,0.0926,0.0935,0.1011,0.1121,0.126,0.1399,0.1483,0.1614,0.1671,0.1715,0.1527,0.1633,0.1619,0.1678,0.1678,0.1679,0.1679,0.1679,0.1679,0.0827,0.0884,0.0939,0.1091,0.1187,0.1316,0.1512,0.1543,0.1628,0.158,0.1726,0.1642,0.1639,0.1623,0.168,0.1679,0.1679,0.1679,0.1679,0.0725,0.0762,0.0826,0.0916,0.1082,0.1153,0.135,0.1407,0.1422,0.1377,0.1468,0.1479,0.1432,0.1433,0.1409,0.1403,0.1401,0.1399,0,0.064,0.0668,0.0716,0.0787,0.0857,0.1031,0.1025,0.1104,0.1212,0.119,0.1351,0.1449,0.1457,0.1399,0.1397,0.1363,0,0,0,0.0557,0.0607,0.0613,0.0704,0.077,0.0847,0.1007,0.1019,0.122,0.119,0.1337,0.1353,0.1484,0.1683,0.1634,0.163,0.1602,0,0]},{"header":{"parameterUnit":"m.s-1","parameterCategory":2,"la1":30.2992,"la2":30.254,"lo1":-89.0895,"lo2":-89.0443,"dy":0.0025,"dx":0.0025,"nx":19,"ny":19,"refTime":"2026-05-06T21:00:00:Z","depth":"4","parameterNumber":3,"parameterNumberName":"V-component_of_CURRENTS"},"data":[0,0,0,-0.0081,-0.0082,-0.0148,-0.0148,-0.0227,-0.0227,0,0,0,0,0,0,0,0,0,0,0,-0.006,-0.006,-0.0081,-0.0083,-0.0148,-0.0148,-0.0227,-0.0227,0,0,0,0,0,0,0,0,0,0,0,-0.006,-0.006,-0.0061,-0.0083,-0.0148,-0.0148,-0.0226,-0.018,0,0,0,0,0,0,0,0,0,0,-0.0118,-0.0098,-0.006,-0.0061,-0.0083,-0.0148,-0.0148,-0.0178,-0.0183,-0.0193,0,-0.0201,0,-0.0212,-0.0232,-0.0232,0,0,0,-0.009,-0.0094,-0.0108,-0.0061,-0.0084,-0.0148,-0.0121,-0.0181,-0.0187,-0.02,-0.0202,-0.0205,-0.0213,-0.0232,-0.0232,-0.0297,-0.0298,0,0,-0.0087,-0.0077,-0.0104,-0.0112,-0.0097,-0.0118,-0.0123,-0.0185,-0.0191,-0.0202,-0.0207,-0.0214,-0.0233,-0.0233,-0.0297,-0.0297,0,0,0,-0.0071,-0.0074,-0.0088,-0.0108,-0.0119,-0.012,-0.0125,-0.0188,-0.0192,-0.0208,-0.0215,-0.0233,-0.0234,-0.0297,-0.0297,-0.0275,0,0,0,-0.0069,-0.0064,-0.0086,-0.0081,-0.0117,-0.0155,-0.0127,-0.0187,-0.0195,-0.0215,-0.0233,-0.0234,-0.0297,-0.0297,-0.0275,-0.0225,0,0,0,-0.0058,-0.0063,-0.0069,-0.008,-0.0105,-0.0154,-0.0162,-0.0189,-0.0199,-0.0232,-0.0235,-0.0297,-0.0297,-0.0275,-0.0227,-0.0265,0,0,0,-0.0048,-0.0072,-0.0069,-0.0097,-0.0104,-0.0142,-0.0162,-0.019,-0.0216,-0.0233,-0.0297,-0.0297,-0.0276,-0.0228,-0.0265,-0.0187,0,0,0,-0.0075,-0.0074,-0.0091,-0.009,-0.0131,-0.0134,-0.0176,-0.0211,-0.0229,-0.0277,-0.0279,-0.0275,-0.0227,-0.0265,-0.0219,0,0,0,0,-0.0098,-0.0114,-0.0124,-0.0147,-0.0161,-0.0168,-0.0206,-0.0224,-0.026,-0.0246,-0.0292,-0.0262,-0.0287,-0.0243,-0.03,-0.03,-0.03,-0.03,-0.03,-0.0172,-0.0164,-0.0181,-0.0177,-0.0197,-0.0204,-0.0214,-0.0246,-0.0269,-0.028,-0.0258,-0.0283,-0.0237,-0.0297,-0.0297,-0.0297,-0.0297,-0.0297,-0.0297,-0.0218,-0.0214,-0.0208,-0.0209,-0.0199,-0.0218,-0.024,-0.0242,-0.0262,-0.0264,-0.0292,-0.0239,-0.0295,-0.0295,-0.0295,-0.0296,-0.0296,-0.0296,-0.0296,-0.0262,-0.0242,-0.0237,-0.0208,-0.0196,-0.0187,-0.0182,-0.0182,-0.0232,-0.0224,-0.0216,-0.0274,-0.0262,-0.0257,-0.0257,-0.0257,-0.0257,-0.0257,-0.0257,-0.0281,-0.0273,-0.0241,-0.0189,-0.0153,-0.0127,-0.0107,-0.0123,-0.0162,-0.0157,-0.0213,-0.027,-0.0272,-0.026,-0.0256,-0.0256,-0.0256,-0.0256,-0.0256,-0.0299,-0.0285,-0.0227,-0.018,-0.0097,-0.0061,-0.0061,-0.0062,-0.0075,-0.0105,-0.0155,-0.0161,-0.0162,-0.0166,-0.0151,-0.0114,-0.0113,-0.0112,0,-0.0304,-0.0291,-0.0232,-0.0169,-0.0089,-0.0046,-0.0008,-0.0022,-0.0071,-0.0068,-0.0134,-0.0194,-0.0197,-0.0201,-0.0203,-0.0187,0,0,0,-0.0301,-0.0266,-0.0239,-0.0176,-0.0083,-0.0033,-0.0004,0.0016,-0.0067,-0.0026,-0.0086,-0.0093,-0.0171,-0.0254,-0.0269,-0.0271,-0.0254,0,0]}]]